CZ-6A DEB, 55213

Orbit data source: Space-Track

CZ-6A DEB, 55213 is space debris in SSO originally from a launch on Fri, 11 Nov 2022 UTC launched from the Taiyaun Space Center, China (TSC). Debris objects in space refer to the collection of defunct objects orbiting the Earth. Examples of debris include non-operational satellites, rocket bodies, and fragments generated from explosions, collisions, or faulty payload assembly.

Loading next visibility...
Identifier
55213, 2022-151WE
Orbit
SSO
Country
Flag of CNCN / PRC
Related business
Manufacturer
SAST
Mission
Spacecraft
Bus & Motor
Unknown
Mass
Unknown
Launch date (UTC)
2022-11-11 (4 years ago)
Launch vehicle
Unknown
Launch site
Taiyaun Space Center, China (TSC)
Object type
Payload
Rocket body
Debris
Shape & HBR
Unknown shape, 0.1 m
Radar Cross Section
Small (<0.1 m²)

Expand to show TLE details & history
Last TLE update: 6 hours ago

TLE from 6 hours ago
0 CZ-6A DEB
1 55213U 22151WE  26236.61479601  .00005468  00000-0  11520-2 0  9994
2 55213  98.6179 292.9197 0091154 106.9677 254.1536 14.57299827194096
Epoch: 2026-08-24T14:45Z
TLE epoch observation values (Epoch: 2026-08-24T14:45:18.375Z)
Latitude
0.00004°
Longitude
98.69917°
Altitude
723.044 km
Speed
7.484 km/s
True Right ascension
19h 31m 40s
True Declination
0° 00' 00"
Sunlit
Object was in full shadow at epoch
Visualization orbit readout
Latitude
Unknown
Longitude
Unknown
Altitude
Unknown
Speed
Unknown
Apparent Right ascension
Unknown
Apparent Declination
Unknown
Sunlit
N/A
Visualization observer readout
Local Sidereal Time
12:11:38
Azimuth
Unknown
Elevation
Unknown
Doppler factor
Unknown
Orbital elements
Apogee altitude
763.521 km
Perigee altitude
634.499 km
Semi-major axis
7,077.147 km
Eccentricity
0.00912
Inclination
98.6179°
RAAN
292.9197°
Arg. of periapsis
106.9677°
True anomaly
253.15192°
Mean anomaly
254.1536°
Eccentric anomaly
253.65244°
Mean motion
3.64549 °/min
Orbital period
98.75 mins
BSTAR
0.001152
Loading maneuver chart data...
Computing Atmospheric mass density...
Loading historical data...
Loading historical data...
Loading historical data...
Loading historical data...
Loading historical data...
Loading historical data...
Loading historical data...

Documentation

Showing up to 5 results
|